Cherry Point, NC

10:14 PM EDT on June 22, 2017 (GMT -0400)
Cherry Point Marine Corps Air Station

Weather History for KNKT - August, 2014

Change the Weather History Date:

Wednesday, August 20, 2014

  Actual Average Record
Temperature  
Mean Temperature 81 °F -  
Max Temperature 88 °F 85 °F 93 °F (2005)
Min Temperature 75 °F 68 °F 64 °F (1998)
Cooling Degree Days 16    
Growing Degree Days 31 (Base 50)    
Moisture  
Dew Point 73 °F    
Average Humidity 86    
Maximum Humidity 94    
Minimum Humidity 57    
Precipitation  
Precipitation 0.00 in - - ()
Sea Level Pressure  
Sea Level Pressure 29.94 in    
Wind  
Wind Speed 5 mph (NNW)    
Max Wind Speed 9 mph    
Max Gust Speed -    
Visibility 7 miles    
Events      
Averages and records for this station are not official NWS values.
T = Trace of Precipitation, MM = Missing Value Source: NWS Daily Summary

Daily Weather History Graph

Daily Weather History Graph

Search for Another Location

Airport or City:

Trip Planner

Search our weather history database for the weather conditions in past years. The results will help you decide how hot, cold, wet, or windy it might be!

Date:

Astronomy

Aug. 20, 2014 Rise Set
Actual Time 6:31 AM EDT 7:49 PM EDT
Civil Twilight 6:04 AM EDT 8:16 PM EDT
Nautical Twilight 5:33 AM EDT 8:47 PM EDT
Astronomical Twilight 5:00 AM EDT 9:20 PM EDT
Moon 2:13 AM EDT (8/20) 4:29 PM EDT (8/20)
Length of Visible Light 14h 11m
Length of Day
13h 18m
Waning Crescent, 21% of the Moon is Illuminated
Aug 20
Waning Crescent
Aug 25
New
Sep 2
First Quarter
Sep 8
Full
Sep 15
Last Quarter

Hourly Weather History & Observations

Time (EDT) Temp. Heat Index Dew Point Humidity Pressure Visibility Wind Dir Wind Speed Gust Speed Precip Events Conditions
12:54 AM 77.0 °F - 73.0 °F 88% 29.85 in 10.0 mi NNW 5.8 mph - N/A   Mostly Cloudy
1:54 AM 77.0 °F - 73.0 °F 88% 29.85 in 10.0 mi NNW 3.5 mph - N/A   Clear
2:54 AM 78.1 °F - 73.9 °F 87% 29.85 in 10.0 mi North 4.6 mph - N/A   Partly Cloudy
3:54 AM 77.0 °F - 73.0 °F 88% 29.86 in 10.0 mi North 5.8 mph - N/A   Clear
4:54 AM 75.9 °F - 73.9 °F 94% 29.87 in 9.0 mi North 3.5 mph - N/A   Clear
5:12 AM 75.9 °F - 73.0 °F 91% 29.89 in 8.0 mi Calm Calm - N/A   Scattered Clouds
5:54 AM 75.9 °F - 73.9 °F 94% 29.89 in 6.0 mi NNW 5.8 mph - N/A   Scattered Clouds
6:01 AM 75.9 °F - 73.9 °F 94% 29.90 in 6.0 mi NNW 4.6 mph - N/A   Overcast
6:09 AM 75.9 °F - 73.9 °F 94% 29.90 in 5.0 mi NW 5.8 mph - N/A   Overcast
6:27 AM 75.0 °F - 73.0 °F 94% 29.91 in 4.0 mi NNW 5.8 mph - N/A   Overcast
6:53 AM 75.0 °F - 73.0 °F 94% 29.91 in 1.8 mi NW 9.2 mph - N/A   Overcast
7:08 AM 75.0 °F - 73.0 °F 94% 29.93 in 2.5 mi NNW 9.2 mph - N/A   Overcast
7:15 AM 75.0 °F - 73.0 °F 94% 29.93 in 4.0 mi NNW 9.2 mph - N/A   Overcast
7:54 AM 75.0 °F - 73.0 °F 94% 29.94 in 5.0 mi NNW 8.1 mph - N/A   Overcast
8:08 AM 75.0 °F - 73.0 °F 94% 29.95 in 1.5 mi North 5.8 mph - N/A   Overcast
8:27 AM 75.0 °F - 73.0 °F 94% 29.95 in 1.5 mi North 6.9 mph - N/A   Overcast
8:51 AM 75.2 °F - 73.4 °F 94% 29.96 in 7.0 mi NNW 8.1 mph - N/A   Mostly Cloudy
8:54 AM 75.9 °F - 73.0 °F 91% 29.95 in 7.0 mi North 5.8 mph - N/A   Mostly Cloudy
9:54 AM 80.1 °F 84.2 °F 73.0 °F 79% 29.98 in 9.0 mi North 5.8 mph - N/A   Mostly Cloudy
10:53 AM 82.9 °F 88.8 °F 73.0 °F 72% 29.98 in 10.0 mi NNE 6.9 mph - N/A   Scattered Clouds
11:54 AM 84.9 °F 91.4 °F 73.0 °F 67% 29.98 in 10.0 mi Variable 3.5 mph - N/A   Scattered Clouds
12:54 PM 84.9 °F 91.4 °F 73.0 °F 67% 29.98 in 10.0 mi NNW 6.9 mph - N/A   Scattered Clouds
1:54 PM 87.1 °F 92.8 °F 71.1 °F 59% 29.98 in 10.0 mi NNW 3.5 mph - N/A   Scattered Clouds
2:54 PM 87.1 °F 92.0 °F 70.0 °F 57% 29.96 in 10.0 mi NNW 6.9 mph - N/A   Partly Cloudy
3:54 PM 87.1 °F 93.6 °F 72.0 °F 61% 29.95 in 10.0 mi East 3.5 mph - N/A   Mostly Cloudy
9:54 PM 77.0 °F - 73.9 °F 90% 30.01 in 9.0 mi ESE 3.5 mph - N/A   Clear
10:54 PM 77.0 °F - 75.0 °F 94% 30.04 in 9.0 mi WSW 3.5 mph - N/A   Clear
11:54 PM 75.9 °F - 73.9 °F 94% 30.03 in 8.0 mi ESE 4.6 mph - N/A   Clear